Погода в Ахалцихе

Грузия     41°38′42″N   42°59′42″E
темп.,
°C
ветер,
м/с
пор.,
м/с
влажн.,
%
обл.,
%
осадки,
мм/ч
давл.,
гПа
погр.,
м
26 февраля, пт
пт2601:00−9сз019056 0.0 103430
04:00−9з019337 0.1 103331
07:00−10з019535 0.1 103327
10:00−7ю118858 0.1 1032243
13:00−2ююв1180100 0.0 1030454
16:00−1ююв118099 0.1 1027378
19:00−4в119294 0.1 102822
22:00−5ю019397 0.1 102922
27 февраля, сб
сб2701:00−8зюз019284 0.0 102826
04:00−9юз019271 0.0 102725
07:00−9зюз019368 0.0 102625
10:00−5ю117855 0.0 1024194
13:000ю11670 0.0 1022340
16:00+2ююв11630 0.0 1020424
19:00−3юв01800 0.0 102021
22:00−5юз01850 0.0 102121
28 февраля, вс
вс2801:00−6ююз01880 0.0 102125
04:00−7ююз01860 0.0 102130
07:00−8ююз01840 0.0 102030
10:00−4ю12660 0.0 1018195
13:00+1ю226114 0.0 1016337
16:00+3в016744 0.1 1016601
19:00−1ссв1293100 0.3 101861
22:00−3юз0193100 0.4 101922
1 марта, пн
пн101:00−4юз119171 0.0 102024
04:00−4зсз008980 0.6 102123
07:00−4ююв0093100 1.7 102274
10:00−2з1190100 3.4 1023203
13:00−1ссв2384100 1.2 1023499
16:00−1ссв2384100 2.6 1023516
19:00−5ссв229293 1.0 1025101
22:00−6с129374 1.2 102728
2 марта, вт
вт201:00−7с1291100 0.0 102852
04:00−7с119197 0.0 102831
07:00−6юв0088100 0.0 102856
10:00−3юз0079100 0.1 1027297
13:00−1св1182100 0.3 1026424
16:00−2ссв2282100 0.9 1026472
19:00−5с229292 0.2 102760
22:00−7с229277 0.3 102945